Location: Palomar Mountain Lodge
(33.3110°N, 116.8495°W)
Time: 12:59:48
(UTC-07:00)

NOAA 11 - Pass Details

Date: 12 July 2018
Orbit: 833 x 849 km, 98.5° (Epoch: 16 July)

Event Time Altitude Azimuth Distance (km) Brightness Sun altitude
Exits shadow 21:01:05 - 169° (S) 2,758 6.4 -11.9°
Reaches altitude 10° 21:01:55 10° 169° (S) 2,430 6.2 -12.1°
Maximum altitude 21:07:18 82° 257° (WSW) 845 4.2 -13.0°
Drops below altitude 10° 21:12:45 10° 345° (NNW) 2,450 7.4 -13.9°
Sets 21:15:07 0° 347° (NNW) 3,390 8.2 -14.2°
